Regional Weather Roundup
Issued by NWS Green Bay, WI

Home | Current Version | Previous Version | Graphics & Text | Print | Product List | Glossary Off
Versions: 1 2 3 4 5 6 7 8 9 10 11 12 13 14 15 16 17 18 19 20 21 22 23 24 25 26 27 28 29 30 31 32 33 34 35 36 37 38 39 40 41 42 43 44 45 46 47 48 49 50

000
ASUS43 KGRB 191100
RWRGRB

NORTH-CENTRAL AND NORTHEAST WISCONSIN REGIONAL WEATHER ROUNDUP
NATIONAL WEATHER SERVICE GREEN BAY WI
600 AM CDT THU APR 19 2018

WIZ005-009-010>012-018-019-191200-
NORTH CENTRAL WISCONSIN

CITY           SKY/WX    TMP DP  RH WIND       PRES   REMARKS
IRONWOOD       FAIR      13  12  96 CALM      30.31R
MANITOWISH WTR NOT AVBL
ARBOR VITAE    NOT AVBL
EAGLE RIVER    FAIR      17  15  89 CALM      30.23R
LAND O LAKES   FAIR      26  20  77 N6        30.26R
RHINELANDER    FAIR      27  18  69 N5        30.25R
PHILLIPS       FAIR      21  15  79 CALM      30.27R
ANTIGO         NOT AVBL
TOMAHAWK       NOT AVBL
MERRILL          N/A     22  15  74 N3        30.26R
$$

WIZ013-073-191200-
NORTHEAST WISCONSIN

CITY           SKY/WX    TMP DP  RH WIND       PRES   REMARKS
IRON MOUNTAIN  FAIR      27  18  69 NW10      30.20R
MARINETTE      FAIR      30  20  66 NW6       30.21R
$$

WIZ017-030-035>037-045-191200-
CENTRAL WISCONSIN

CITY           SKY/WX    TMP DP  RH WIND       PRES   REMARKS
MEDFORD        NOT AVBL
WAUSAU         FAIR      27  16  63 NW7       30.24R
MOSINEE        CLEAR     27  18  69 N12       30.25R
MARSHFIELD     FAIR      20  12  71 N6        30.24R
WISC RAPIDS    FAIR      22  12  65 NW5       30.27R
STEVENS POINT  NOT AVBL
WAUPACA        FAIR      29  16  59 NW5       30.23R
SHAWANO        FAIR      32  19  57 N3        30.22R
CLINTONVILLE   FAIR      25  14  63 NW5       30.23R
WAUTOMA        FAIR      20  15  81 CALM      30.25R
$$

WIZ038-039-048-051-191200-
FOX VALLEY

CITY           SKY/WX    TMP DP  RH WIND       PRES   REMARKS
NWS GREEN BAY  FAIR      30  19  63 N10       30.21R
APPLETON       NOT AVBL
OSHKOSH        FAIR      27  17  66 NW8       30.21R
FOND DU LAC    FLURRIES  24  14  65 NW6       30.21R
$$

WIZ022-050-052-191200-
EAST CENTRAL WISCONSIN

CITY           SKY/WX    TMP DP  RH WIND       PRES   REMARKS
EPHRAIM        NOT AVBL
WASHINGTON ISL NOT AVBL
STURGEON BAY   FAIR      30  23  75 N14       30.19R
MANITOWOC      FAIR      30  22  72 N12       30.19R
SHEBOYGAN      FAIR      30  21  69 N9        30.18R
$$

LMZ563-521-522-541>543-191200-
LAKESHORE

STATION/POSITION TIME  TEMP    WIND        PRES    VSBY  WAVE
                       AIR SEA DIR/SP/G                  HT/PER
                 (UTC) (F)     (DEG/KT/KT) (MB)    (MI)  (FT/S)
SHEBOYGAN LKSHOR 1000   34     330/ 12/ 16 1021.4R
KEWAUNEE LKSHORE 1030   32     330/  6/ 12 1020.8R
NORTHPORT PIER   1040   33                 1021.7R
MENOMINEE LKSHOR 1030   30     320/ 11/ 12 1022.0R
$$




USA.gov is the U.S. government's official web portal to all federal, state and local government web resources and services.